User: anonymous   Login
Location: Unspecified
(0.0000°N, 0.0000°E)
Time: 03:30:13
(UTC+00:00)
Language:

CANX 3A (UNIBRITE) - Orbit

View from above orbital plane
View from above orbital plane
View from above satellite
View from above satellite

Ground track
Ground track

The orbit data is extracted from the following two-line orbital elements,

1 39092U 13009G   16211.59422826  .00000027  00000-0  25116-4 0  9993
2 39092  98.5772  52.7833 0009487 170.4792 189.6574 14.34859167179217
Epoch (UTC): 29 July 2016 14:15:41
Eccentricity: 0.0009487
inclination: 98.5772°
perigee height: 769 km
apogee height: 782 km
right ascension of ascending node: 52.7833°
argument of perigee: 170.4792°
revolutions per day: 14.34859167
mean anomaly at epoch: 189.6574°
orbit number at epoch: 17921

The dashed part of the orbit path shows where the satellite is in the earth's shadow,  

DLR